Regional Weather Roundup
Issued by NWS

Home | Current Version | Previous Version | Graphics & Text | Print | Product List | Glossary Off
Versions: 1 2 3 4 5 6 7 8 9 10 11 12 13 14 15 16 17 18 19 20 21 22 23 24 25 26 27 28 29 30 31 32 33 34 35 36 37 38 39 40 41 42 43 44 45 46 47 48 49 50

000
ASUS43 KLSX 251457
RWRMO

WEATHER SUMMARY FOR MISSOURI
NATIONAL WEATHER SERVICE SPRINGFIELD MO
1000 AM CDT SAT MAR 25 2017

NOTE: "FAIR" INDICATES FEW OR NO CLOUDS BELOW 12,000 FEET WITH NO
       SIGNIFICANT WEATHER AND/OR OBSTRUCTIONS TO VISIBILITY.
       CURRENT SKY AND/OR WEATHER CONDITIONS ARE NOT AVAILABLE FOR
       CHILLICOTHE AND FARMINGTON.

MOZ001>031-035>038-043-044-053-054-251600-
...NORTHERN AND WESTERN MISSOURI...

CITY           SKY/WX    TMP DP  RH WIND       PRES   REMARKS
KANSAS CTY INT DRIZZLE   51  51 100 N12       29.83R FOG
KANSAS C DTWN  CLOUDY    57  54  88 NE7       29.81S
LEE`S SUMMIT   LGT RAIN  53  51  93 NE6       29.82R
ST JOSEPH      LGT RAIN  48  47  96 N17G24    29.87R
CHILLICOTHE      N/A     53  52  96 N10G20    29.86R
KIRKSVILLE     CLOUDY    51  51 100 NE8       29.84R FOG

$$
MOZ066>068-077>081-088>096-101>105-251600-
...SOUTHWEST MISSOURI...

CITY           SKY/WX    TMP DP  RH WIND       PRES   REMARKS
SPRINGFIELD    LGT RAIN  54  51  90 SW5       29.79S
JOPLIN         CLOUDY    50  49  96 NW13      29.84R
BRANSON        PTSUNNY   54  54 100 W3        29.80S FOG

$$
MOZ032>034-039>042-045>050-055>058-069>072-251600-
...CENTRAL MISSOURI...

CITY           SKY/WX    TMP DP  RH WIND       PRES   REMARKS
COLUMBIA       CLOUDY    55  54  94 SE5       29.83R
JEFFERSON CITY CLOUDY    58  52  80 E9        29.83R
ROLLA          CLOUDY    56  53  90 S13       29.83R
SEDALIA        PTSUNNY   58  52  80 VRB3      29.82F
WARRENSBURG    LGT RAIN  54  50  87 NW6       29.81F
OSAGE BEACH    CLOUDY   N/A N/A N/A S10       29.82R

$$
MOZ051-052-059>065-251600-
...EAST CENTRAL MISSOURI...

CITY           SKY/WX    TMP DP  RH WIND       PRES   REMARKS
ST LOUIS INTL  CLOUDY    60  54  80 SE17G26   29.88R

$$
MOZ072>076-082>087-097>100-106>115-251600-
...SOUTH CENTRAL AND SOUTHEAST MISSOURI...

CITY           SKY/WX    TMP DP  RH WIND       PRES   REMARKS
CAPE GIRARDEAU PTSUNNY   59  55  87 S12       29.92R
POPLAR BLUFF   LGT RAIN  58  57  97 SE12      29.90F
WEST PLAINS    CLOUDY    56  54  93 SE10G21   29.84S

$$


USA.gov is the U.S. government's official web portal to all federal, state and local government web resources and services.